KLM90G EGNT-EHAM

Flight info

Callsign KLM90G
Flight time N/A
Altitude 35000
Route GIRLI P18 GASKO Y250 KEFTE UY250 MAMUL L603 LAMSO
Aircraft E190/M-SDE2E3FGIJ1RWY/HB1

Departure

Time 2026-04-29 13:48
Airport Newcastle International Airport (EGNT)

Arrival

Time N/A
Airport Amsterdam Airport Schiphol (EHAM)
Time Latitude Longitude Altitude Speed Heading
2026-04-29 13:42 55.03812 -1.70818 266 ft 0 kts 94°
2026-04-29 13:44 55.03811 -1.70798 266 ft 4 kts 94°
2026-04-29 13:44 55.03808 -1.70732 266 ft 6 kts 94°
2026-04-29 13:45 55.03804 -1.70642 266 ft 8 kts 94°
2026-04-29 13:45 55.03799 -1.70529 266 ft 10 kts 94°
2026-04-29 13:45 55.03766 -1.70428 266 ft 11 kts 169°
2026-04-29 13:45 55.03685 -1.70435 266 ft 13 kts 184°
2026-04-29 13:46 55.03603 -1.70488 266 ft 12 kts 234°
2026-04-29 13:46 55.03578 -1.70619 266 ft 11 kts 232°
2026-04-29 13:46 55.03511 -1.70644 266 ft 10 kts 182°
2026-04-29 13:46 55.03437 -1.70648 266 ft 11 kts 182°
2026-04-29 13:47 55.03372 -1.70622 267 ft 8 kts 133°
2026-04-29 13:47 55.03372 -1.70565 266 ft 0 kts 65°
2026-04-29 13:47 55.03427 -1.70356 264 ft 51 kts 65°
2026-04-29 13:48 55.03671 -1.69441 255 ft 114 kts 65°
2026-04-29 13:48 55.04072 -1.67963 372 ft 150 kts 66°
2026-04-29 13:48 55.04515 -1.66303 1049 ft 152 kts 69°
2026-04-29 13:48 55.04942 -1.64572 1679 ft 158 kts 70°
2026-04-29 13:49 55.05404 -1.62756 2312 ft 168 kts 67°
2026-04-29 13:49 55.05915 -1.60859 2960 ft 177 kts 69°
2026-04-29 13:49 55.06430 -1.58847 3581 ft 186 kts 70°
2026-04-29 13:49 55.06703 -1.56578 4151 ft 200 kts 92°
2026-04-29 13:50 55.06375 -1.54089 4594 ft 225 kts 115°
2026-04-29 13:50 55.05362 -1.51838 5101 ft 250 kts 139°
2026-04-29 13:50 55.03780 -1.50348 5768 ft 267 kts 156°
2026-04-29 13:50 55.01965 -1.49680 6587 ft 278 kts 177°
2026-04-29 13:51 55.00046 -1.50393 7451 ft 286 kts 195°
2026-04-29 13:51 54.98173 -1.51605 8349 ft 288 kts 197°
2026-04-29 13:51 54.96300 -1.52902 9228 ft 290 kts 198°
2026-04-29 13:51 54.94419 -1.54231 10133 ft 293 kts 198°
2026-04-29 13:52 54.92512 -1.55590 10868 ft 305 kts 198°
2026-04-29 13:52 54.90504 -1.57073 11322 ft 324 kts 199°
2026-04-29 13:52 54.88401 -1.58686 11942 ft 335 kts 199°
2026-04-29 13:52 54.86256 -1.60325 12787 ft 338 kts 199°
2026-04-29 13:53 54.84108 -1.61931 13629 ft 343 kts 198°
2026-04-29 13:53 54.81901 -1.63587 14497 ft 348 kts 199°
2026-04-29 13:53 54.79669 -1.65287 15374 ft 353 kts 199°
2026-04-29 13:53 54.77411 -1.67030 16209 ft 358 kts 199°
2026-04-29 13:54 54.75126 -1.68818 17007 ft 363 kts 199°
2026-04-29 13:54 54.72812 -1.70652 17745 ft 368 kts 200°
2026-04-29 13:54 54.70474 -1.72529 18490 ft 373 kts 200°
2026-04-29 13:54 54.68112 -1.74442 19266 ft 376 kts 200°
2026-04-29 13:55 54.65735 -1.76380 19984 ft 381 kts 200°
2026-04-29 13:55 54.63335 -1.78357 20706 ft 384 kts 201°
2026-04-29 13:55 54.60947 -1.80345 21361 ft 388 kts 201°
2026-04-29 13:55 54.58509 -1.82395 21991 ft 392 kts 201°
2026-04-29 13:56 54.56053 -1.84476 22595 ft 395 kts 202°
2026-04-29 13:56 54.53506 -1.86192 23130 ft 392 kts 189°
2026-04-29 13:56 54.50834 -1.87109 23743 ft 392 kts 185°
2026-04-29 13:56 54.48133 -1.87862 24289 ft 395 kts 184°
2026-04-29 13:57 54.45408 -1.88611 24877 ft 398 kts 185°
2026-04-29 13:57 54.42661 -1.89377 25441 ft 402 kts 185°
2026-04-29 13:57 54.39893 -1.90163 25981 ft 405 kts 185°
2026-04-29 13:57 54.38056 -1.90726 26337 ft 407 kts 186°
2026-04-29 13:58 54.34351 -1.91894 26999 ft 411 kts 186°
2026-04-29 13:58 54.31532 -1.92777 27490 ft 413 kts 185°
2026-04-29 13:58 54.28694 -1.93656 27939 ft 416 kts 185°
2026-04-29 13:58 54.25838 -1.94536 28369 ft 418 kts 185°
2026-04-29 13:59 54.22959 -1.95049 28732 ft 413 kts 171°
2026-04-29 13:59 54.20264 -1.93877 29122 ft 402 kts 151°
2026-04-29 13:59 54.17782 -1.91701 29572 ft 401 kts 148°
2026-04-29 13:59 54.15425 -1.89196 29962 ft 399 kts 141°
2026-04-29 14:00 54.13139 -1.86507 30427 ft 399 kts 142°
2026-04-29 14:00 54.10806 -1.83882 30656 ft 405 kts 143°
2026-04-29 14:00 54.08432 -1.81284 31064 ft 406 kts 143°
2026-04-29 14:00 54.06034 -1.78693 31295 ft 410 kts 143°
2026-04-29 14:01 54.03620 -1.76100 31670 ft 410 kts 143°
2026-04-29 14:01 54.01207 -1.73512 32062 ft 410 kts 144°
2026-04-29 14:01 53.98809 -1.71014 32415 ft 410 kts 144°
2026-04-29 14:01 53.96371 -1.68514 32761 ft 409 kts 144°
2026-04-29 14:02 53.93941 -1.66020 33131 ft 407 kts 144°
2026-04-29 14:02 53.91522 -1.63529 33478 ft 406 kts 144°
2026-04-29 14:02 53.89106 -1.61046 33775 ft 406 kts 144°
2026-04-29 14:02 53.86690 -1.58564 34030 ft 406 kts 144°
2026-04-29 14:03 53.84279 -1.56090 34325 ft 406 kts 144°
2026-04-29 14:03 53.81868 -1.53618 34615 ft 404 kts 144°
2026-04-29 14:03 53.79464 -1.51160 34918 ft 403 kts 144°
2026-04-29 14:03 53.77093 -1.48737 35132 ft 404 kts 144°
2026-04-29 14:04 53.74693 -1.46286 35437 ft 401 kts 144°
2026-04-29 14:04 53.72296 -1.43842 35535 ft 406 kts 144°
2026-04-29 14:04 53.67362 -1.38826 35332 ft 421 kts 144°
2026-04-29 14:05 53.62343 -1.33750 35338 ft 422 kts 144°
2026-04-29 14:05 53.57229 -1.28906 35330 ft 427 kts 154°
2026-04-29 14:06 53.54350 -1.27738 35331 ft 438 kts 170°
2026-04-29 14:06 53.51285 -1.27607 35312 ft 442 kts 175°
2026-04-29 14:06 53.45301 -1.26555 35292 ft 424 kts 151°
2026-04-29 14:07 53.40191 -1.21785 35227 ft 418 kts 143°
2026-04-29 14:07 53.36022 -1.15284 35237 ft 407 kts 120°
2026-04-29 14:08 53.34801 -1.11045 35243 ft 404 kts 106°
2026-04-29 14:08 53.34221 -1.06463 35248 ft 403 kts 99°
2026-04-29 14:08 53.33349 -0.97276 35267 ft 403 kts 98°
2026-04-29 14:09 53.32524 -0.88001 35272 ft 403 kts 98°
2026-04-29 14:09 53.31715 -0.78754 35315 ft 401 kts 98°
2026-04-29 14:10 53.30897 -0.69508 35351 ft 402 kts 101°
2026-04-29 14:10 53.29346 -0.60521 35380 ft 403 kts 106°
2026-04-29 14:11 53.27693 -0.51658 35394 ft 402 kts 107°
2026-04-29 14:11 53.26013 -0.42737 35402 ft 402 kts 107°
2026-04-29 14:12 53.24312 -0.33833 35406 ft 402 kts 107°